Home   Weather   Spartanburg   Past weeks

Flag for USA Past Weather in Spartanburg, South Carolina, USA — Yesterday and Last 2 Weeks

Now
52 °F

Low clouds.


Feels Like: 49 °F
Forecast: 53 / 59 °F
Wind: 8 mph from Northeast

Location: Spartanburg Memorial

Current Time: Jan 16, 2017 at 5:57:27 am

Latest Report: Jan 16, 2017 at 5:35 am


Visibility: 10 mi

Pressure: 30.31 "Hg

Humidity: 88%

Dew Point: 48 °F

Location of SpartanburgLocation

Past Weather in Spartanburg — Graph

°F

Spartanburg Temperature Yesterday

Maximum temperature yesterday: 73 °F (at 1:55 pm)
Minimum temperature yesterday: 46 °F (at 12:55 am)
Average temperature yesterday: 60 °F

High & Low Weather Summary for the Past Weeks

 TemperatureHumidityPressure
High77 °F (Jan 13, 2:35 pm)100% (Jan 1, 6:15 am)30.76 "Hg (Jan 1, 6:15 am)
Low18 °F (Jan 8, 8:15 am)19% (Jan 8, 4:15 pm)29.86 "Hg (Jan 5, 11:15 pm)
Average46 °F68%30.33 "Hg
* Reported Jan 1 4:15 am — Jan 16 4:55 am, Spartanburg, Weather by CustomWeather, © 2017

Note: Actual official high and low records may vary slightly from our data, if they occured in-between our weather recording intervals... More about our weather records

Advertising

Spartanburg Weather History for the Previous 24 Hours

Scroll right to see more
 ConditionsComfort  
Time TempWeatherWind HumidityBarometerVisibility
4:55 am
Mon, Jan 16
54 °FOvercast.3 mph77%30.30 "Hg10 mi
4:15 am54 °FOvercast.3 mph82%30.30 "Hg10 mi
3:35 am55 °FOvercast.3 mph82%30.30 "Hg10 mi
2:55 am55 °FOvercast.3 mph82%30.30 "Hg10 mi
2:15 am55 °FMostly cloudy.No wind82%30.29 "Hg10 mi
1:35 am55 °FPassing clouds.No wind82%30.28 "Hg10 mi
12:55 am57 °FPartly cloudy.6 mph82%30.28 "Hg10 mi
12:15 am59 °FMostly cloudy.3 mph77%30.27 "Hg10 mi
11:35 pm
Sun, Jan 15
59 °FPassing clouds.3 mph77%30.27 "Hg10 mi
11:15 pm59 °FOvercast.5 mph77%30.27 "Hg10 mi
10:55 pm61 °FOvercast.6 mph72%30.27 "Hg10 mi
10:35 pm61 °FOvercast.3 mph72%30.27 "Hg10 mi
9:55 pm63 °FOvercast.3 mph68%30.27 "Hg10 mi
9:35 pm63 °FOvercast.3 mph68%30.27 "Hg10 mi
8:55 pm63 °FOvercast.No wind73%30.26 "Hg10 mi
8:35 pm63 °FOvercast.No wind73%30.25 "Hg10 mi
7:55 pm63 °FPassing clouds.No wind73%30.25 "Hg10 mi
7:15 pm64 °FPartly cloudy.5 mph68%30.24 "Hg10 mi
6:55 pm66 °FMostly cloudy.3 mph64%30.23 "Hg10 mi
6:35 pm68 °FOvercast.7 mph56%30.23 "Hg10 mi
5:55 pm70 °FOvercast.No wind50%30.22 "Hg10 mi
5:35 pm72 °FOvercast.No wind47%30.22 "Hg10 mi
4:55 pm72 °FMore clouds than sun.5 mph47%30.21 "Hg10 mi
4:15 pm73 °FPartly sunny.No wind41%30.20 "Hg10 mi
3:55 pm73 °FBroken clouds.6 mph44%30.20 "Hg10 mi
3:15 pm73 °FBroken clouds.5 mph44%30.20 "Hg10 mi
2:35 pm73 °FSunny.3 mph44%30.21 "Hg10 mi
1:55 pm73 °FSunny.No wind44%30.22 "Hg10 mi
1:15 pm72 °FSunny.No wind47%30.23 "Hg10 mi
12:55 pm72 °FSunny.No wind50%30.24 "Hg10 mi
12:15 pm70 °FSunny.No wind53%30.26 "Hg10 mi
11:35 am68 °FSunny.No wind56%30.29 "Hg10 mi
10:55 am63 °FSunny.No wind68%30.30 "Hg10 mi
10:15 am59 °FScattered clouds.5 mph82%30.30 "Hg10 mi
9:55 am55 °FPartly sunny.3 mph94%30.30 "Hg7 mi
9:15 am54 °FFog.No wind94%30.31 "Hg2 mi
8:35 am50 °FFog.No wind100%30.30 "Hg1 mi
7:55 am50 °FFog.No wind94%30.29 "Hg0 mi
7:15 am50 °FFog.No wind100%30.28 "Hg1 mi
6:55 am50 °FFog.No wind100%30.28 "Hg1 mi
6:35 am50 °FFog.No wind100%30.27 "Hg1 mi
5:55 am52 °FFog.No wind94%30.27 "Hg0 mi
5:15 am52 °FFog.3 mph94%30.27 "Hg0 mi
Weather by CustomWeather, © 2017

See weather overviewHow to use our weather pages